Location: Namasale
(1.5000°N, 32.6167°E)
Time: 16:04:42
(UTC+00:00)

Vanguard 3 - Visible Passes

Search period start: 19 April 2021 00:00
Search period end: 29 April 2021 00:00
Orbit: 508 x 3262 km, 33.3° (Epoch: 19 April)

Date Brightness Start Highest point End Pass type
(mag) Time Alt. Az. Time Alt. Az. Time Alt. Az.
19 Apr 9.8 16:41:07 10° SSW 16:56:11 32° SSE 17:02:44 22° ESE visible
19 Apr 9.7 18:57:41 10° SW 19:07:20 43° SW 19:07:20 43° SW visible
20 Apr 9.1 17:40:08 10° SW 17:56:29 53° SSE 17:57:59 51° SE visible
20 Apr 10.5 19:58:14 10° WSW 20:02:36 22° WSW 20:02:36 22° WSW visible
21 Apr 9.9 16:22:53 10° SW 16:39:33 38° SSE 16:48:44 17° E visible
21 Apr 9.1 18:39:51 10° SW 18:53:22 66° WSW 18:53:22 66° WSW visible
22 Apr 9.2 17:22:03 10° SW 17:39:42 63° SSE 17:44:13 43° E visible
22 Apr 10.1 19:40:55 10° WSW 19:48:51 32° W 19:48:51 32° W visible
23 Apr 10.0 16:04:46 10° SW 16:22:43 45° SSE 16:35:03 10° E visible
23 Apr 8.9 18:22:04 10° WSW 18:38:45 77° NW 18:39:48 73° N visible
23 Apr 11.0 20:44:20 10° W 20:44:26 10° W 20:44:26 10° W visible
24 Apr 9.4 17:04:01 10° SW 17:22:44 72° SE 17:30:50 26° ENE visible
24 Apr 9.8 19:23:39 10° WSW 19:35:29 39° WNW 19:35:29 39° WNW visible
25 Apr 10.0 15:46:45 10° SW 16:05:41 51° SSE 16:19:02 10° ENE visible
25 Apr 9.3 18:04:20 10° WSW 18:21:44 68° NW 18:26:35 41° NNE visible
25 Apr 10.7 20:27:52 10° WNW 20:31:15 15° WNW 20:31:15 15° WNW visible
26 Apr 9.5 03:18:30 10° NNE 03:20:03 12° NE 03:21:48 10° ENE visible
26 Apr 9.5 16:46:06 10° SW 17:05:35 82° SE 17:17:45 11° ENE visible
26 Apr 9.8 19:06:26 10° W 19:20:03 36° NW 19:22:24 33° NNW visible
27 Apr 9.7 17:46:41 10° WSW 18:04:35 61° NW 18:13:33 19° NE visible
27 Apr 10.6 20:11:28 10° WNW 20:18:13 16° NW 20:18:13 16° NW visible
28 Apr 9.1 03:01:32 10° N 03:03:48 15° NE 03:06:26 10° ENE visible
28 Apr 9.7 16:28:18 10° SW 16:48:17 89° NW 17:01:33 10° NE visible
28 Apr 10.2 18:49:18 10° W 19:03:09 33° NW 19:09:21 20° N visible
